Total_Precipitation_Accumulation
1.49 1.58 1.56 1.52 1.54 1.52 1.40 1.24 1.17 1.12 1.10 1.12 1.20 1.27 1.24 1.26 1.34 1.41 1.43 1.65 1.75 1.73 1.69 1.69 1.63 1.63 1.60 1.55 1.62 1.73 1.84 1.85 1.58 1.31 1.34 1.36 1.33 1.21 1.15 1.07 0.97 0.89 0.73
1.39 1.57 1.63 1.57 1.56 1.49 1.31 1.18 1.14 1.12 1.13 1.15 1.22 1.23 1.14 1.12 1.25 1.32 1.37 1.51 1.60 1.58 1.53 1.53 1.39 1.39 1.42 1.37 1.45 1.52 1.61 1.80 1.76 1.60 1.64 1.65 1.61 1.48 1.41 1.35 1.16 0.95 0.80
1.32 1.65 1.79 1.75 1.64 1.51 1.34 1.16 1.09 1.10 1.15 1.15 1.16 1.18 1.19 1.26 1.37 1.39 1.38 1.36 1.37 1.41 1.53 1.61 1.44 1.41 1.36 1.37 1.38 1.36 1.41 1.56 1.68 1.66 1.67 1.75 1.72 1.69 1.55 1.38 1.28 1.15 0.91
1.17 1.41 1.52 1.42 1.34 1.28 1.19 1.08 1.02 1.03 1.10 1.13 1.16 1.16 1.21 1.33 1.36 1.41 1.42 1.34 1.27 1.27 1.34 1.39 1.41 1.41 1.38 1.46 1.43 1.40 1.39 1.48 1.58 1.62 1.66 1.79 1.80 1.70 1.67 1.50 1.47 1.35 1.20
0.91 1.03 1.14 1.13 1.08 1.04 1.04 1.03 0.98 1.07 1.12 1.18 1.22 1.21 1.18 1.20 1.14 1.13 1.16 1.16 1.19 1.14 1.08 1.08 1.13 1.23 1.25 1.26 1.19 1.30 1.41 1.45 1.47 1.49 1.53 1.70 1.89 1.93 1.75 1.63 1.68 1.64 1.49
0.80 0.90 1.03 1.14 1.12 1.04 1.01 1.03 1.00 1.08 1.13 1.17 1.17 1.23 1.22 1.03 1.10 1.09 1.09 1.21 1.27 1.24 1.17 1.10 1.05 1.05 0.99 0.96 0.95 1.02 1.20 1.32 1.36 1.41 1.44 1.58 1.78 1.96 1.98 1.91 1.82 1.74 1.69
0.86 0.92 1.03 1.14 1.19 1.15 1.07 1.13 1.13 1.19 1.26 1.24 1.20 1.20 1.22 1.25 1.27 1.15 1.01 0.98 1.06 1.11 1.13 1.11 0.97 0.89 0.97 0.94 0.97 0.94 0.95 1.05 1.15 1.27 1.36 1.39 1.53 1.74 1.94 1.88 1.93 1.94 1.91
0.94 1.01 1.13 1.23 1.24 1.24 1.26 1.32 1.42 1.48 1.48 1.45 1.39 1.31 1.34 1.37 1.30 1.10 1.01 0.94 0.99 1.04 1.09 1.13 1.12 1.04 1.03 1.11 1.15 1.10 1.02 0.99 1.03 1.05 1.10 1.21 1.41 1.65 1.91 1.88 1.87 1.92 1.95
1.03 1.08 1.19 1.31 1.38 1.45 1.50 1.51 1.56 1.63 1.59 1.54 1.54 1.57 1.53 1.58 1.55 1.30 1.20 1.11 1.14 1.17 1.21 1.21 1.18 1.10 1.16 1.13 1.12 1.12 1.06 1.01 0.98 1.00 1.00 1.13 1.34 1.44 1.64 1.75 1.74 1.75 1.66
1.19 1.31 1.48 1.64 1.68 1.73 1.87 1.95 1.86 1.77 1.66 1.70 1.71 1.73 1.73 1.79 1.91 1.65 1.47 1.38 1.41 1.38 1.42 1.34 1.25 1.18 1.20 1.15 1.05 1.08 1.07 1.07 1.13 1.12 1.08 1.09 1.15 1.33 1.49 1.58 1.70 1.79 1.65
1.29 1.44 1.65 1.80 1.88 1.95 2.09 2.17 2.15 2.13 2.10 2.03 1.94 1.92 1.90 1.92 2.03 1.79 1.61 1.52 1.57 1.64 1.62 1.48 1.44 1.39 1.23 1.20 1.15 1.15 1.19 1.20 1.25 1.25 1.23 1.23 1.26 1.33 1.40 1.48 1.66 1.80 1.78
1.30 1.42 1.55 1.69 1.72 1.80 2.02 2.14 2.21 2.24 2.21 2.12 2.04 1.91 1.90 1.87 1.79 1.66 1.52 1.46 1.57 1.72 1.79 1.67 1.57 1.47 1.26 1.20 1.13 1.16 1.18 1.09 1.07 1.18 1.21 1.22 1.21 1.21 1.25 1.38 1.53 1.61 1.66
1.38 1.50 1.61 1.70 1.78 1.87 1.92 1.92 2.00 2.09 2.09 2.01 2.00 1.93 1.88 1.88 1.83 1.57 1.33 1.24 1.27 1.36 1.53 1.60 1.49 1.36 1.19 1.07 1.05 1.03 0.95 0.85 0.89 0.95 0.96 0.95 0.94 0.98 1.11 1.27 1.45 1.52 1.48
1.48 1.52 1.59 1.70 1.74 1.76 1.88 1.96 2.02 2.12 2.22 2.13 2.02 1.94 1.89 1.83 1.71 1.52 1.31 1.21 1.24 1.32 1.42 1.49 1.37 1.25 1.10 1.02 0.97 0.89 0.83 0.87 0.90 0.91 0.92 0.94 0.99 1.05 1.10 1.16 1.26 1.36 1.39
1.36 1.42 1.47 1.51 1.59 1.66 1.71 1.79 1.81 1.87 1.86 1.83 1.78 1.78 1.77 1.71 1.55 1.46 1.34 1.22 1.26 1.37 1.42 1.49 1.39 1.34 1.27 1.19 1.11 1.05 1.03 1.04 0.98 0.96 1.01 1.01 1.01 1.06 1.07 1.09 1.21 1.23 1.18
1.42 1.44 1.40 1.38 1.43 1.48 1.51 1.49 1.47 1.39 1.36 1.32 1.32 1.33 1.32 1.27 1.18 1.07 1.03 1.03 1.07 1.21 1.28 1.44 1.50 1.47 1.43 1.36 1.25 1.15 1.10 1.05 1.00 1.01 1.04 1.05 1.04 1.05 1.11 1.10 1.15 1.18 1.10
1.29 1.33 1.32 1.31 1.37 1.37 1.39 1.42 1.44 1.36 1.25 1.17 1.15 1.13 1.15 1.12 1.06 1.03 1.04 1.08 1.08 1.12 1.17 1.32 1.39 1.35 1.32 1.27 1.15 1.04 0.99 1.00 1.07 1.09 1.10 1.09 1.13 1.15 1.19 1.17 1.14 1.18 1.15
1.11 1.18 1.25 1.32 1.36 1.40 1.42 1.47 1.57 1.64 1.57 1.39 1.21 1.11 1.03 0.98 0.93 0.93 0.96 0.97 0.96 0.98 1.08 1.20 1.23 1.17 1.14 1.11 1.08 1.02 1.01 1.06 1.15 1.14 1.13 1.13 1.15 1.15 1.18 1.19 1.15 1.12 1.11
1.02 1.03 1.05 1.12 1.19 1.25 1.26 1.31 1.39 1.49 1.52 1.42 1.27 1.14 1.01 0.94 0.86 0.83 0.83 0.81 0.87 0.97 1.10 1.13 1.15 1.14 1.07 1.04 1.04 0.99 0.98 1.00 1.09 1.14 1.12 1.13 1.13 1.14 1.13 1.10 1.13 1.12 1.04
1.00 0.98 0.97 0.97 0.99 0.99 1.01 1.07 1.17 1.28 1.33 1.26 1.16 1.04 0.93 0.88 0.78 0.73 0.69 0.69 0.77 0.85 0.94 0.99 1.01 0.98 0.92 0.93 0.96 0.94 0.92 0.98 1.08 1.11 1.08 1.11 1.15 1.15 1.07 1.04 1.06 1.10 1.03
0.98 0.93 0.90 0.89 0.87 0.87 0.90 0.95 0.99 1.02 1.07 1.03 0.96 0.83 0.74 0.69 0.62 0.58 0.58 0.64 0.72 0.81 0.88 0.92 0.91 0.87 0.85 0.89 0.93 0.96 0.93 0.99 1.06 1.08 1.08 1.12 1.16 1.16 1.10 1.06 1.04 1.06 1.06
0.91 0.81 0.75 0.72 0.75 0.78 0.80 0.87 0.92 0.92 0.89 0.84 0.78 0.62 0.58 0.55 0.49 0.47 0.50 0.56 0.63 0.74 0.76 0.76 0.78 0.79 0.76 0.78 0.84 0.91 0.95 1.01 1.08 1.10 1.08 1.10 1.14 1.14 1.16 1.13 1.12 1.09 1.10
0.93 0.81 0.72 0.66 0.66 0.67 0.70 0.79 0.84 0.81 0.73 0.67 0.62 0.58 0.57 0.59 0.49 0.46 0.51 0.60 0.66 0.68 0.65 0.66 0.71 0.74 0.75 0.76 0.77 0.84 0.91 0.97 1.02 1.03 1.09 1.13 1.11 1.09 1.10 1.05 1.05 1.06 1.06
0.87 0.79 0.70 0.59 0.59 0.64 0.66 0.71 0.74 0.74 0.68 0.63 0.60 0.58 0.58 0.61 0.57 0.55 0.59 0.70 0.69 0.63 0.61 0.64 0.67 0.70 0.73 0.78 0.78 0.78 0.82 0.87 0.87 0.87 0.90 0.95 0.97 0.99 1.01 1.00 1.00 0.99 1.01
0.83 0.74 0.64 0.54 0.52 0.56 0.59 0.64 0.68 0.69 0.65 0.60 0.59 0.60 0.63 0.67 0.64 0.63 0.65 0.66 0.62 0.58 0.54 0.59 0.64 0.66 0.69 0.71 0.73 0.73 0.73 0.70 0.70 0.73 0.76 0.80 0.85 0.93 1.00 1.00 1.00 0.99 0.98
0.75 0.68 0.62 0.54 0.47 0.48 0.55 0.62 0.64 0.63 0.61 0.58 0.57 0.59 0.59 0.60 0.59 0.55 0.52 0.51 0.50 0.49 0.49 0.54 0.60 0.62 0.66 0.67 0.60 0.58 0.55 0.50 0.52 0.61 0.64 0.72 0.83 0.91 0.95 1.00 0.98 1.00 0.98